"Pseudo-MPEC" for ST22KA6

Created 2022 Nov 26 21:22:24 UT using Find_Orb

Click here for an explanation of pseudo-MPECs

 
 Astrometry: 
     ST22KA6* C2022 11 23Db]/1MkAstrometryOAexP=redacted;e%$j,b'kn4uXL[[l(Z/fU68
     ST22KA6  C2022 11 23i@mZoh65fg,+ldclickuxLDtj?-pB=]L#lFpLo8=*here$for*k/U68
     ST22KA6  C2022 11 23PU*(\`LVQkc!l`ObDRTj[`:RD\5'fk1n'KA]V2!XXaPa#um2eImKU68
     ST22KA6  C2022 11 23=yp5[_!*'o1SjI/WJA5erQhmD2explanationHG^eF.![G=6RE,cU68

Station data:
(U68) JPL SynTrack Robotic Telescope, Auberry  (N37.070387 W119.412990)
   US/California.  Observers N. Saini, C. Zhai, R. Trahan, M. Zhan, M. Shao.
   0.28-m f/2.2 Schmidt + CCD.

Orbital elements:  ST22KA6
   Perihelion 2022 Dec 28.33164 +/- 35.9 TT =  7:57:33 (JD 2459941.83164)
Epoch 2022 Nov 23.0 TT = JDT 2459906.5   Earth MOID: 0.0068   AutoNEOCP
M 328.71185081 +/- 21               (J2000 ecliptic)
n   0.88555607 +/- 0.403            Peri.   40.87371 +/- 59
a   1.07396963 +/- 0.326            Node    56.63018 +/- 36
e   0.0902077 +/- 0.26              Incl.    2.73929 +/- 11
P   1.11/406.52d           H 29.6   G  0.15   U 12.1  SR
q 0.97708921 +/- 0.0969    Q 1.17085006 +/- 27.4
From 4 observations 2022 Nov. 23 (35.9 min); mean residual 0".12
Residuals in arcseconds: 
221123 U68  .14-  .06-    221123 U68  .18-  .07+    
221123 U68  .20+  .06+    221123 U68  .12+  .07-    

Ephemerides (geocentric):
Date (UTC) HH   RA             Dec           delta  r     elong  mag " sig PA
---- --------  ------------   ------------  ------ ------ -----  --- --------
2022 11 26 21  01 22 18.148   +79 38 50.47  .00715 0.9904 118.5 21.0  21d 104
2022 11 26 22  01 19 13.251   +79 59 12.68  .00716 0.9903 118.2 21.0  21d 103
2022 11 26 23  01 15 56.542   +80 19 22.52  .00718 0.9903 117.9 21.0  21d 103
2022 11 27 00  01 12 26.932   +80 39 19.32  .00719 0.9903 117.5 21.0  21d 102
2022 11 27 01  01 08 43.208   +80 59 02.33  .00721 0.9902 117.2 21.0  21d 102
2022 11 27 02  01 04 44.019   +81 18 30.70  .00723 0.9902 116.9 21.1  21d 101
2022 11 27 03  01 00 27.855   +81 37 43.49  .00725 0.9901 116.6 21.1  21d 101
2022 11 27 04  00 55 53.030   +81 56 39.65  .00726 0.9901 116.2 21.1  21d 100
2022 11 27 05  00 50 57.663   +82 15 17.96  .00728 0.9901 115.9 21.1  21d 100
2022 11 27 06  00 45 39.657   +82 33 37.07  .00730 0.9900 115.6 21.1  21d 100
2022 11 27 07  00 39 56.673   +82 51 35.43  .00732 0.9900 115.3 21.1  21d  99
2022 11 27 08  00 33 46.118   +83 09 11.26  .00734 .98996 115.0 21.1  21d  99
2022 11 27 09  00 27 05.121   +83 26 22.55  .00735 .98993 114.6 21.2  21d  98
2022 11 27 10  00 19 50.528   +83 43 06.98  .00737 .98989 114.3 21.2  21d  98
2022 11 27 11  00 11 58.901   +83 59 21.93  .00739 .98986 114.0 21.2  22d  98
2022 11 27 12  00 03 26.540   +84 15 04.36  .00741 .98982 113.7 21.2  22d  97
2022 11 27 13  23 54 09.533   +84 30 10.85  .00743 .98978 113.4 21.2  22d  97
2022 11 27 14  23 44 03.840   +84 44 37.47  .00745 .98975 113.1 21.2  22d  97
2022 11 27 15  23 33 05.443   +84 58 19.84  .00747 .98971 112.8 21.3  22d  96
2022 11 27 16  23 21 10.565   +85 11 13.02  .00749 .98968 112.5 21.3  22d  96
2022 11 27 17  23 08 15.971   +85 23 11.57  .00751 .98964 112.2 21.3  22d  96
2022 11 27 18  22 54 19.381   +85 34 09.59  .00753 .98960 111.9 21.3  22d  96
2022 11 27 19  22 39 19.965   +85 44 00.87  .00755 .98957 111.6 21.3  22d  95
2022 11 27 20  22 23 18.897   +85 52 39.00  .00758 .98953 111.3 21.3  22d  95
2022 11 27 21  22 06 19.907   +85 59 57.73  .00760 .98950 111.0 21.3  22d  95
2022 11 27 22  21 48 29.695   +86 05 51.29  .00762 .98946 110.7 21.4  22d  95
2022 11 27 23  21 29 58.085   +86 10 14.83  .00764 .98942 110.4 21.4  22d  95
2022 11 28 00  21 10 57.794   +86 13 04.82  .00766 .98939 110.1 21.4  23d  95
2022 11 28 01  20 51 43.738   +86 14 19.47  .00769 .98935 109.8 21.4  23d  95
2022 11 28 02  20 32 31.952   +86 13 58.88  .00771 .98932 109.6 21.4  23d  95
2022 11 28 03  20 13 38.283   +86 12 05.16  .00773 .98928 109.3 21.4  23d  95
2022 11 28 04  19 55 17.124   +86 08 42.25  .00775 .98925 109.0 21.5  23d  95
2022 11 28 05  19 37 40.432   +86 03 55.58  .00778 .98921 108.7 21.5  23d  95
2022 11 28 06  19 20 57.159   +85 57 51.64  .00780 .98917 108.4 21.5  23d  95
2022 11 28 07  19 05 13.143   +85 50 37.57  .00782 .98914 108.2 21.5  23d  95
2022 11 28 08  18 50 31.344   +85 42 20.69  .00785 .98910 107.9 21.5  23d  96
2022 11 28 09  18 36 52.321   +85 33 08.23  .00787 .98907 107.6 21.5  23d  96
2022 11 28 10  18 24 14.779   +85 23 07.04  .00790 .98903 107.3 21.5  23d  96
2022 11 28 11  18 12 36.125   +85 12 23.45  .00792 .98900 107.1 21.6  23d  96
2022 11 28 12  18 01 52.936   +85 01 03.23  .00794 .98896 106.8 21.6  24d  97
2022 11 28 13  17 52 01.339   +84 49 11.52  .00797 .98893 106.5 21.6  24d  97
2022 11 28 14  17 42 57.292   +84 36 52.86  .00799 .98889 106.3 21.6  24d  97
2022 11 28 15  17 34 36.778   +84 24 11.25  .00802 .98886 106.0 21.6  24d  97
2022 11 28 16  17 26 55.939   +84 11 10.17  .00804 .98882 105.8 21.6  24d  98
2022 11 28 17  17 19 51.144   +83 57 52.66  .00807 .98879 105.5 21.7  24d  98
2022 11 28 18  17 13 19.033   +83 44 21.36  .00810 .98875 105.3 21.7  24d  98
2022 11 28 19  17 07 16.534   +83 30 38.54  .00812 .98872 105.0 21.7  24d  99
2022 11 28 20  17 01 40.854   +83 16 46.21  .00815 .98868 104.7 21.7  24d  99